When you browse on this site, cookies collect data to enhance your experience and personalize the content and advertising you see.
Visit our Privacy Policy to learn more. By continuing to use the site, you agree to this use of cookies and data.
  • In Switzerland
  • List of Countries
  • For 7 days
  • Water Temperature
  • Satellite Maps
  • Weather Map
  • Weather Widgets
  • user-avatar
    Login

    Hourly Weather Herāt

    Today, 26 June, Wednesday

    Time Temperature Precipitation Wind Pressure Humidity
    00:00 +26°C° 0 mm 4 mps 677 mmHg 15%
    01:00 +25°C° 0 mm 3 mps 677 mmHg 16%
    02:00 +24°C° 0 mm 3 mps 677 mmHg 16%
    03:00 +22°C° 0 mm 3 mps 676 mmHg 17%
    04:00 +22°C° 0 mm 3 mps 676 mmHg 17%
    05:00 +25°C° 0 mm 3 mps 677 mmHg 15%
    06:00 +28°C° 0 mm 4 mps 678 mmHg 13%
    07:00 +30°C° 0 mm 5 mps 679 mmHg 11%
    08:00 +33°C° 0 mm 7 mps 679 mmHg 10%
    09:00 +34°C° 0 mm 9 mps 679 mmHg 10%
    10:00 +37°C° 0 mm 10 mps 679 mmHg 9%
    11:00 +38°C° 0 mm 11 mps 679 mmHg 9%
    12:00 +38°C° 0 mm 11 mps 679 mmHg 8%
    13:00 +39°C° 0 mm 11 mps 679 mmHg 8%
    14:00 +38°C° 0 mm 11 mps 679 mmHg 8%
    15:00 +38°C° 0 mm 11 mps 678 mmHg 7%
    16:00 +38°C° 0 mm 11 mps 678 mmHg 7%
    17:00 +36°C° 0 mm 10 mps 678 mmHg 8%
    18:00 +33°C° 0 mm 8 mps 678 mmHg 8%
    19:00 +32°C° 0 mm 7 mps 678 mmHg 8%
    20:00 +29°C° 0 mm 7 mps 677 mmHg 9%
    21:00 +28°C° 0 mm 6 mps 677 mmHg 10%
    22:00 +27°C° 0 mm 6 mps 677 mmHg 10%
    23:00 +26°C° 0 mm 5 mps 677 mmHg 11%

    Tomorrow, 27 June, Thursday

    Time Temperature Precipitation Wind Pressure Humidity
    00:00 +25°C° 0 mm 5 mps 676 mmHg 12%
    01:00 +23°C° 0 mm 4 mps 676 mmHg 13%
    02:00 +23°C° 0 mm 4 mps 676 mmHg 14%
    03:00 +23°C° 0 mm 4 mps 676 mmHg 14%
    04:00 +23°C° 0 mm 4 mps 675 mmHg 14%
    05:00 +26°C° 0 mm 5 mps 676 mmHg 13%
    06:00 +28°C° 0 mm 6 mps 677 mmHg 12%
    07:00 +30°C° 0 mm 7 mps 677 mmHg 11%
    08:00 +33°C° 0 mm 8 mps 677 mmHg 10%
    09:00 +35°C° 0 mm 9 mps 677 mmHg 10%
    10:00 +37°C° 0 mm 10 mps 678 mmHg 9%
    11:00 +38°C° 0 mm 10 mps 677 mmHg 9%
    12:00 +39°C° 0 mm 10 mps 677 mmHg 9%
    13:00 +39°C° 0 mm 10 mps 677 mmHg 9%
    14:00 +39°C° 0 mm 10 mps 676 mmHg 9%
    15:00 +39°C° 0 mm 10 mps 676 mmHg 9%
    16:00 +39°C° 0 mm 10 mps 676 mmHg 10%
    17:00 +38°C° 0 mm 9 mps 676 mmHg 11%
    18:00 +35°C° 0 mm 8 mps 675 mmHg 12%
    19:00 +33°C° 0 mm 7 mps 675 mmHg 13%
    20:00 +32°C° 0 mm 6 mps 675 mmHg 15%
    21:00 +30°C° 0 mm 6 mps 675 mmHg 16%
    22:00 +28°C° 0 mm 5 mps 675 mmHg 17%
    23:00 +28°C° 0 mm 5 mps 675 mmHg 18%

    Day after tomorrow, 28 June, Friday

    Time Temperature Precipitation Wind Pressure Humidity
    00:00 +27°C° 0 mm 4 mps 674 mmHg 18%
    01:00 +26°C° 0 mm 4 mps 674 mmHg 19%
    02:00 +26°C° 0 mm 4 mps 674 mmHg 19%
    03:00 +25°C° 0 mm 4 mps 674 mmHg 20%
    04:00 +25°C° 0 mm 3 mps 673 mmHg 21%
    05:00 +27°C° 0 mm 4 mps 674 mmHg 19%
    06:00 +29°C° 0 mm 5 mps 675 mmHg 16%
    07:00 +32°C° 0 mm 5 mps 675 mmHg 14%
    08:00 +34°C° 0 mm 7 mps 676 mmHg 13%
    09:00 +37°C° 0 mm 9 mps 676 mmHg 12%
    10:00 +39°C° 0 mm 10 mps 676 mmHg 10%
    11:00 +39°C° 0 mm 10 mps 676 mmHg 10%
    12:00 +40°C° 0 mm 10 mps 676 mmHg 10%
    13:00 +40°C° 0 mm 10 mps 675 mmHg 10%
    14:00 +40°C° 0 mm 10 mps 675 mmHg 10%
    15:00 +40°C° 0 mm 10 mps 675 mmHg 10%
    16:00 +40°C° 0 mm 10 mps 674 mmHg 11%
    17:00 +39°C° 0 mm 9 mps 674 mmHg 12%
    18:00 +37°C° 0 mm 8 mps 674 mmHg 14%
    19:00 +34°C° 0 mm 8 mps 674 mmHg 15%
    20:00 +33°C° 0 mm 8 mps 674 mmHg 17%
    21:00 +32°C° 0 mm 8 mps 674 mmHg 19%
    22:00 +31°C° 0 mm 9 mps 674 mmHg 20%
    23:00 +29°C° 0 mm 8 mps 674 mmHg 22%

    29 June, Saturday

    Time Temperature Precipitation Wind Pressure Humidity
    00:00 +28°C° 0 mm 7 mps 674 mmHg 24%
    01:00 +28°C° 0 mm 5 mps 673 mmHg 26%
    02:00 +27°C° 0 mm 5 mps 673 mmHg 27%
    03:00 +26°C° 0 mm 4 mps 673 mmHg 28%
    04:00 +26°C° 0 mm 3 mps 673 mmHg 29%
    05:00 +28°C° 0 mm 3 mps 673 mmHg 25%
    06:00 +30°C° 0 mm 3 mps 674 mmHg 22%
    07:00 +33°C° 0 mm 3 mps 674 mmHg 18%
    08:00 +35°C° 0 mm 4 mps 675 mmHg 16%
    09:00 +37°C° 0 mm 5 mps 675 mmHg 14%
    10:00 +40°C° 0 mm 6 mps 675 mmHg 13%
    11:00 +41°C° 0 mm 7 mps 675 mmHg 12%
    12:00 +41°C° 0 mm 7 mps 675 mmHg 11%
    13:00 +43°C° 0 mm 7 mps 675 mmHg 11%
    14:00 +43°C° 0 mm 8 mps 675 mmHg 11%
    15:00 +41°C° 0 mm 8 mps 674 mmHg 11%
    16:00 +41°C° 0 mm 8 mps 674 mmHg 11%
    17:00 +39°C° 0 mm 7 mps 674 mmHg 12%
    18:00 +38°C° 0 mm 6 mps 674 mmHg 14%
    19:00 +35°C° 0 mm 6 mps 674 mmHg 15%
    20:00 +34°C° 0 mm 6 mps 674 mmHg 17%
    21:00 +32°C° 0 mm 6 mps 674 mmHg 18%
    22:00 +30°C° 0 mm 5 mps 674 mmHg 20%
    23:00 +29°C° 0 mm 4 mps 674 mmHg 20%

    30 June, Sunday

    Time Temperature Precipitation Wind Pressure Humidity
    00:00 +28°C° 0 mm 4 mps 673 mmHg 21%
    01:00 +27°C° 0 mm 3 mps 673 mmHg 22%
    02:00 +26°C° 0 mm 2 mps 672 mmHg 22%
    03:00 +25°C° 0 mm 2 mps 672 mmHg 23%
    04:00 +25°C° 0 mm 2 mps 672 mmHg 24%
    05:00 +27°C° 0 mm 2 mps 673 mmHg 21%
    06:00 +30°C° 0 mm 2 mps 673 mmHg 18%
    07:00 +32°C° 0 mm 2 mps 674 mmHg 15%
    08:00 +36°C° 0 mm 3 mps 674 mmHg 13%
    09:00 +38°C° 0 mm 4 mps 675 mmHg 10%
    10:00 +41°C° 0 mm 5 mps 675 mmHg 8%
    11:00 +43°C° 0 mm 7 mps 675 mmHg 7%
    12:00 +44°C° 0 mm 9 mps 675 mmHg 6%
    13:00 +45°C° 0 mm 10 mps 675 mmHg 5%
    14:00 +46°C° 0 mm 11 mps 674 mmHg 6%
    15:00 +46°C° 0 mm 11 mps 674 mmHg 6%
    16:00 +44°C° 0 mm 11 mps 674 mmHg 6%
    17:00 +42°C° 0 mm 9 mps 674 mmHg 8%
    18:00 +39°C° 0 mm 8 mps 674 mmHg 9%
    19:00 +36°C° 0 mm 6 mps 674 mmHg 10%
    20:00 +35°C° 0 mm 5 mps 674 mmHg 12%
    21:00 +33°C° 0 mm 5 mps 674 mmHg 13%
    22:00 +32°C° 0 mm 4 mps 674 mmHg 14%
    23:00 +30°C° 0 mm 4 mps 674 mmHg 15%

    1 July, Monday

    Time Temperature Precipitation Wind Pressure Humidity
    00:00 +29°C° 0 mm 4 mps 673 mmHg 16%
    01:00 +28°C° 0 mm 3 mps 673 mmHg 17%
    02:00 +27°C° 0 mm 3 mps 673 mmHg 18%
    03:00 +26°C° 0 mm 3 mps 672 mmHg 19%
    04:00 +25°C° 0 mm 2 mps 672 mmHg 21%
    05:00 +28°C° 0 mm 2 mps 673 mmHg 18%
    06:00 +31°C° 0 mm 2 mps 674 mmHg 15%
    07:00 +35°C° 0 mm 3 mps 675 mmHg 13%
    08:00 +37°C° 0 mm 5 mps 675 mmHg 11%
    09:00 +40°C° 0 mm 7 mps 675 mmHg 9%
    10:00 +44°C° 0 mm 9 mps 676 mmHg 7%
    11:00 +45°C° 0 mm 10 mps 676 mmHg 7%
    12:00 +46°C° 0 mm 11 mps 675 mmHg 7%
    13:00 +47°C° 0 mm 12 mps 675 mmHg 7%
    14:00 +47°C° 0 mm 11 mps 675 mmHg 7%
    15:00 +47°C° 0 mm 11 mps 675 mmHg 8%
    16:00 +47°C° 0 mm 11 mps 674 mmHg 8%
    17:00 +44°C° 0 mm 10 mps 674 mmHg 9%
    18:00 +41°C° 0 mm 8 mps 674 mmHg 10%
    19:00 +40°C° 0 mm 7 mps 674 mmHg 11%
    20:00 +38°C° 0 mm 7 mps 674 mmHg 12%
    21:00 +36°C° 0 mm 7 mps 674 mmHg 13%
    22:00 +35°C° 0 mm 6 mps 675 mmHg 13%
    23:00 +34°C° 0 mm 6 mps 674 mmHg 14%
    Show more